Location: Unspecified
(0.0000°N, 0.0000°E)
Time: 17:01:35
(UTC+00:00)

AO-73 - Pass Details

Date: 03 October 2021
Orbit: 580 x 662 km, 97.6° (Epoch: 22 October)

Event Time Altitude Azimuth Distance (km) Brightness Sun altitude
Rises 04:29:30 0° 3° (N) 2,780 ? -19.8°
Reaches altitude 10° 04:31:41 10° 358° (N) 1,885 ? -19.3°
Maximum altitude 04:35:39 52° 281° (W) 721 ? -18.3°
Drops below altitude 10° 04:39:41 10° 204° (SSW) 1,912 ? -17.3°
Sets 04:41:54 0° 199° (SSW) 2,824 ? -16.7°
